Location: Ash Swamp
(41.5170°N, 74.6157°W)
Time: 02:38:38
(UTC+00:00)

Cosmos 864 Rocket - Pass Details

Date: 14 July 2020
Orbit: 953 x 991 km, 82.9° (Epoch: 14 August)

Event Time Altitude Azimuth Distance (km) Brightness Sun altitude
Exits shadow 03:50:04 51° 190° (S) 1,216 4.6 -24.6°
Maximum altitude 03:51:48 88° 276° (W) 991 4.4 -24.7°
Drops below altitude 10° 03:58:10 10° 7° (N) 2,757 7.7 -25.0°
Sets 04:00:42 0° 8° (N) 3,713 8.6 -25.2°
